Renton, WA
on Monday, December 24, 2012

Monday
Previous Day Next Day
Daily Summary
 ActualAverage (KSEA)Record (KSEA)
Temperature
Mean Temperature °F 40°F  
Max Temperature 45°F 45°F 62°F (2005)
Min Temperature 39°F 35°F 16°F (1948)
Degree Days
Heating Degree Days 23 25  
Month to date heating degree days 585  
Since 1 July heating degree days 1768  
Cooling Degree Days 0 0  
Month to date cooling degree days 0  
Year to date cooling degree days 189  
Moisture
Dew Point 38°F   
Average Humidity 83    
Maximum Humidity 93    
Minimum Humidity 76    
Precipitation
Precipitation 0.02 in 0.17 in 0.75 in (1980)
Month to date precipitation 4.20  
Year to date precipitation 36.34  
Snow
Snow 0.00 in in 2.60 in (2008)
Month to date snowfall  
Since 1 July snowfall  
Snow Depth in   
Wind
Wind Speed 3 mph   
Max Wind Speed 9 mph   
Max Gust Speed mph   
Visibility 10 miles   
Events Rain   

Key: T is trace of precipitation, MM is missing value
Source: NWS Daily Summary
Time(PST)TemperatureDew PointHumidity Pressure Visibility Wind DirectionWind SpeedGust SpeedPrecipitationEvents Conditions
12:53 AM 41.0°F 37.0°F 86% 29.87 in 10.0 miles ESE 3.5 mph - N/A   Overcast
1:53 AM 42.1°F 37.9°F 85% 29.90 in 10.0 miles Calm Calm - N/A   Overcast
2:53 AM 42.1°F 37.0°F 82% 29.93 in 10.0 miles SSE 5.8 mph - N/A   Overcast
3:38 AM 42.8°F 37.4°F 81% 29.94 in 10.0 miles South 5.8 mph - 0.00 in   Overcast
3:53 AM 42.1°F 37.9°F 85% 29.96 in 10.0 miles South 6.9 mph - 0.00 in   Overcast
4:53 AM 42.1°F 37.9°F 85% 29.99 in 10.0 miles South 6.9 mph - 0.00 in   Overcast
5:02 AM 42.8°F 37.4°F 81% 29.97 in 9.0 miles South 6.9 mph - N/A   Overcast
5:53 AM 42.1°F 37.9°F 85% 30.01 in 10.0 miles Calm Calm - N/A   Overcast
6:53 AM 41.0°F 37.0°F 86% 30.04 in 10.0 miles Calm Calm - N/A   Mostly Cloudy
7:23 AM 41.0°F 37.4°F 87% 30.04 in 10.0 miles Calm Calm - N/A   Overcast
7:41 AM 39.2°F 37.4°F 93% 30.05 in 10.0 miles Calm Calm - N/A   Overcast
7:53 AM 39.9°F 37.0°F 89% 30.06 in 10.0 miles Calm Calm - N/A   Overcast
8:13 AM 39.2°F 37.4°F 93% 30.07 in 10.0 miles Calm Calm - N/A   Overcast
8:53 AM 42.1°F 37.9°F 85% 30.11 in 10.0 miles Calm Calm - N/A   Overcast
9:14 AM 42.8°F 39.2°F 87% 30.10 in 10.0 miles Calm Calm - N/A   Overcast
9:53 AM 44.1°F 39.0°F 82% 30.13 in 10.0 miles ESE 5.8 mph - N/A   Overcast
10:12 AM 42.8°F 37.4°F 81% 30.13 in 10.0 miles SE 4.6 mph - N/A   Overcast
10:53 AM 44.1°F 37.9°F 79% 30.15 in 10.0 miles SSE 3.5 mph - N/A   Overcast
11:53 AM 44.1°F 39.0°F 82% 30.16 in 10.0 miles SE 3.5 mph - N/A   Overcast
12:21 PM 44.6°F 37.4°F 76% 30.14 in 10.0 miles SE 4.6 mph - N/A   Overcast
12:53 PM 44.1°F 37.9°F 79% 30.18 in 10.0 miles South 5.8 mph - N/A   Overcast
1:09 PM 44.6°F 37.4°F 76% 30.16 in 10.0 miles South 8.1 mph - N/A   Overcast
1:22 PM 44.6°F 37.4°F 76% 30.16 in 10.0 miles South 6.9 mph - N/A   Overcast
1:53 PM 45.0°F 39.0°F 80% 30.18 in 10.0 miles South 5.8 mph - N/A   Overcast
2:53 PM 45.0°F 39.9°F 82% 30.18 in 10.0 miles Calm Calm - 0.00 in   Overcast
2:55 PM 44.6°F 39.2°F 81% 30.17 in 10.0 miles Calm Calm - N/A   Overcast
3:20 PM 44.6°F 39.2°F 81% 30.17 in 10.0 miles SE 3.5 mph - 0.00 in Rain Light Rain
3:53 PM 45.0°F 39.0°F 80% 30.18 in 4.0 miles SSE 5.8 mph - 0.01 in Rain Light Rain
4:49 PM 44.6°F 39.2°F 81% 30.17 in 10.0 miles South 8.1 mph - 0.01 in Rain Light Rain
4:53 PM 44.1°F 39.0°F 82% 30.19 in 10.0 miles South 9.2 mph - 0.01 in Rain Light Rain
5:53 PM 44.1°F 39.9°F 85% 30.18 in 10.0 miles East 3.5 mph - 0.00 in   Overcast
6:53 PM 43.0°F 37.9°F 82% 30.15 in 10.0 miles Calm Calm - 0.00 in   Mostly Cloudy
7:53 PM 42.1°F 37.9°F 85% 30.14 in 10.0 miles Calm Calm - N/A   Clear
8:53 PM 41.0°F 37.0°F 86% 30.13 in 10.0 miles ESE 5.8 mph - N/A   Clear
9:53 PM 41.0°F 37.0°F 86% 30.13 in 10.0 miles SE 3.5 mph - N/A   Clear
10:53 PM 39.9°F 36.0°F 86% 30.10 in 10.0 miles Calm Calm - N/A   Clear
11:53 PM 39.0°F 36.0°F 89% 30.06 in 10.0 miles SSW 3.5 mph - N/A   Clear
Moon Phase
Dec. 24 Dec. 28 Jan. 04 Jan. 11 Jan. 18
Sunrise:07:55 AM (PST) Moon Rise:01:57 PM (PST)12/24
Sunset:04:22 PM (PST) Moon Set:04:33 AM (PST)12/24

Copyright © 2014 The Weather Underground, Inc.